Regional Weather Roundup
Issued by NWS Northern Indiana

Home | Current Version | Previous Version | Text Only | Print | Product List | Glossary Off
Versions: 1 2 3 4 5 6 7 8 9 10 11 12 13 14 15 16 17 18 19 20 21 22 23 24 25 26 27 28 29 30 31 32 33 34 35 36 37 38 39 40 41 42 43 44 45 46 47 48 49 50

000
ASUS43 KIWX 201400
RWRIWX

KIWX WEATHER ROUNDUP
NATIONAL WEATHER SERVICE NORTHERN INDIANA
900 AM EST FRI JAN 20 2017

NOTE: "FAIR" INDICATES FEW OR NO CLOUDS BELOW 12,000 FEET WITH NO
SIGNIFICANT WEATHER AND/OR OBSTRUCTIONS TO VISIBILITY.

* THESE STATIONS ARE NOT UNDER NWS QUALITY CONTROL. THEY ALSO MAY NOT
  REPORT WEATHER SUCH AS PRECIPITATION OR FOG.

INZ001>027-201500-
NORTHERN INDIANA

CITY           SKY/WX    TMP DP  RH WIND       PRES   REMARKS
GARY*          LGT RAIN  39  39 100 NE6       29.62S
SOUTH BEND     FOG       37  36  96 E5        29.62S VSB 1
ELKHART*       FOG       37  36  93 E6        29.62R VSB 1
GOSHEN         CLOUDY    37  34  89 NE3       29.61R FOG
FORT WAYNE     DRIZZLE   39  36  89 SE3       29.62R FOG
PERU/GRISSOM   LGT RAIN  41  41 100 CALM      29.60R FOG

$$
INZ028>050-201500-
CENTRAL INDIANA

CITY           SKY/WX    TMP DP  RH WIND       PRES   REMARKS
LAFAYETTE      CLOUDY    43  43 100 CALM      29.61R FOG
KOKOMO*        LGT RAIN  41  41 100 CALM      29.62R VSB 1/4
MUNCIE*        CLOUDY    49  48  97 SW10      29.61R
INDIANAPOLIS   DRZL/FOG  50  50 100 SW9       29.64R VSB 1/4

$$
MIZ043>046-050>051-056>058-064>065-071>073-077>080-201500-
SOUTHWEST LOWER MICHIGAN

CITY           SKY/WX    TMP DP  RH WIND       PRES   REMARKS
BATTLE CREEK   LGT RAIN  36  35  96 NE8       29.63S FOG
BENTON HARBOR  CLOUDY    38  36  92 E5        29.63R FOG
COLDWATER*     CLOUDY    36  36 100 NE3       29.61S FOG
HILLSDALE*     DRIZZLE   32  32 100 E12       29.59F WCI  23
HOLLAND        LGT RAIN  36  34  92 NE8       29.66S
GRAND RAPIDS   LGT RAIN  34  32  92 NE12      29.66F FOG     WCI  25
KALAMAZOO      LGT RAIN  37  33  85 NE5       29.63S FOG
STURGIS*       CLOUDY    35  35  99 CALM      29.61R FOG
THREE RIVERS*  DRIZZLE   35  35  98 E3        29.63R

$$
OHZ001>008-015>018-024>025-201500-
NORTHWEST OHIO

CITY           SKY/WX    TMP DP  RH WIND       PRES   REMARKS
DEFIANCE       CLOUDY    36  36 100 E7        29.61S FOG
FINDLAY        LGT RAIN  45  41  86 SE10      29.59F
TOLEDO EXPRESS LGT RAIN  36  36 100 NE10      29.62S FOG
TOLEDO METCALF CLOUDY    36  36 100 NE8       29.63F FOG
LIMA           LGT RAIN  45  45 100 S12       29.60R

$$
AND FOR LAKE MICHIGAN COASTAL AND OPEN LAKE BUOY OBSERVATIONS

STATION/POSITION TEMP    WIND        PRES    VSBY  WAVE
                 AIR SEA DIR/SP/G                  HT/PER
                 (F)     (DEG/KT/KT) (MB)    (MI)  (FT/S)
CALUMET HARBOR    35      30/  5/  7 1002.8
MICHIGAN CITY     34      40/  8/  9   N/A
BURNS HARBOR      35      60/  7/ 11 1003.7

$$
&&




USA.gov is the U.S. government's official web portal to all federal, state and local government web resources and services.